User: anonymous   Login
Location: Beaurevoir
(49.9971°N, 3.3085°E)
Time: 10:28:27
(UTC+00:00)
Language:

MOZ.5/SAFIR/RUBIN 5/SL-8 - Orbit

View from above orbital plane
View from above orbital plane
View from above satellite
View from above satellite

Ground track
Ground track

The orbit data is extracted from the following two-line orbital elements,

1 28898U 05043G   24203.91931787  .00001705  00000-0  34596-3 0  9996
2 28898  98.2578 332.2535 0018844 358.6184   1.4962 14.62385805621552
Epoch (UTC): 21 July 2024 22:03:49
Eccentricity: 0.0018844
inclination: 98.2578°
perigee height: 672 km
apogee height: 699 km
right ascension of ascending node: 332.2535°
argument of perigee: 358.6184°
revolutions per day: 14.62385805
mean anomaly at epoch: 1.4962°
orbit number at epoch: 62155

The dashed part of the orbit path shows where the satellite is in the earth's shadow,  

DLR